Location: Bu�n Treun
(12.1333°N, 108.3167°E)
Time: 13:13:00
(UTC+00:00)

Cosmos 1271 Rocket - Pass Details

Date: 13 July 2020
Orbit: 497 x 546 km, 81.2° (Epoch: 06 August)

Event Time Altitude Azimuth Distance (km) Brightness Sun altitude
Rises 20:29:09 0° 0° (N) 2,578 6.7 -27.1°
Reaches altitude 10° 20:31:18 10° 5° (N) 1,693 5.7 -26.6°
Enters shadow 20:33:53 40° 28° (NNE) 746 3.8 -26.1°
